Woodward, OK

1:26 PM CDT on August 23, 2017 (GMT -0500)
West Woodward

Weather History for KWWR - May, 2014

Change the Weather History Date:

Monday, May 19, 2014

  Actual Average (KGAG) Record (KGAG)
Temperature  
Mean Temperature 82 °F -  
Max Temperature 96 °F 80 °F 102 °F (2004)
Min Temperature 68 °F 54 °F 35 °F (1971)
Cooling Degree Days 17    
Growing Degree Days 32 (Base 50)    
Moisture  
Dew Point 50 °F    
Average Humidity 37    
Maximum Humidity 60    
Minimum Humidity 15    
Precipitation  
Precipitation 0.00 in - - ()
Sea Level Pressure  
Sea Level Pressure 29.75 in    
Wind  
Wind Speed 27 mph (South)    
Max Wind Speed 32 mph    
Max Gust Speed 41 mph    
Visibility 10 miles    
Events      
Averages and records for this station are not official NWS values.
T = Trace of Precipitation, MM = Missing Value Source: NWS Daily Summary

Daily Weather History Graph

Daily Weather History Graph

Search for Another Location

Airport or City:

Trip Planner

Search our weather history database for the weather conditions in past years. The results will help you decide how hot, cold, wet, or windy it might be!

Date:

Astronomy

May. 19, 2014 Rise Set
Actual Time 6:28 AM CDT 8:41 PM CDT
Civil Twilight 5:59 AM CDT 9:10 PM CDT
Nautical Twilight 5:23 AM CDT 9:46 PM CDT
Astronomical Twilight 4:45 AM CDT 10:24 PM CDT
Moon 12:32 AM CDT (5/19) 11:25 AM CDT (5/19)
Length of Visible Light 15h 11m
Length of Day
14h 13m
Waning Gibbous, 71% of the Moon is Illuminated
May 19
Waning Gibbous
May 21
Last Quarter
May 28
New
Jun 5
First Quarter
Jun 12
Full

Hourly Weather History & Observations

Time (CDT) Temp. Heat Index Dew Point Humidity Pressure Visibility Wind Dir Wind Speed Gust Speed Precip Events Conditions
12:15 AM 71.6 °F - 53.6 °F 53% 29.83 in 10.0 mi SSE 28.8 mph 36.8 mph N/A   Clear
12:35 AM 71.6 °F - 53.6 °F 53% 29.83 in 10.0 mi SSE 23.0 mph 33.4 mph N/A   Clear
12:55 AM 69.8 °F - 53.6 °F 56% 29.82 in 10.0 mi SSE 25.3 mph 38.0 mph N/A   Clear
1:15 AM 69.8 °F - 53.6 °F 56% 29.81 in 10.0 mi SSE 26.5 mph 38.0 mph N/A   Clear
1:35 AM 69.8 °F - 53.6 °F 56% 29.80 in 10.0 mi SSE 25.3 mph 34.5 mph N/A   Clear
1:55 AM 69.8 °F - 53.6 °F 56% 29.80 in 10.0 mi SSE 26.5 mph 36.8 mph N/A   Clear
2:15 AM 69.8 °F - 53.6 °F 56% 29.79 in 10.0 mi South 26.5 mph 39.1 mph N/A   Clear
2:35 AM 69.8 °F - 53.6 °F 56% 29.78 in 10.0 mi South 31.1 mph 38.0 mph N/A   Clear
2:55 AM 69.8 °F - 53.6 °F 56% 29.77 in 10.0 mi South 29.9 mph 36.8 mph N/A   Clear
3:15 AM 69.8 °F - 53.6 °F 56% 29.77 in 10.0 mi South 28.8 mph 40.3 mph N/A   Clear
3:35 AM 69.8 °F - 53.6 °F 56% 29.78 in 10.0 mi South 26.5 mph 33.4 mph N/A   Clear
3:55 AM 69.8 °F - 53.6 °F 56% 29.77 in 10.0 mi South 25.3 mph 34.5 mph N/A   Clear
4:15 AM 68.0 °F - 53.6 °F 60% 29.77 in 10.0 mi South 25.3 mph 31.1 mph N/A   Clear
4:35 AM 68.0 °F - 53.6 °F 60% 29.76 in 10.0 mi South 29.9 mph 34.5 mph N/A   Clear
4:55 AM 68.0 °F - 53.6 °F 60% 29.76 in 10.0 mi South 23.0 mph 35.7 mph N/A   Clear
5:15 AM 68.0 °F - 53.6 °F 60% 29.76 in 10.0 mi South 25.3 mph 33.4 mph N/A   Clear
5:35 AM 68.0 °F - 53.6 °F 60% 29.77 in 10.0 mi South 27.6 mph 33.4 mph N/A   Clear
5:55 AM 68.0 °F - 53.6 °F 60% 29.76 in 10.0 mi South 27.6 mph 34.5 mph N/A   Clear
6:15 AM 68.0 °F - 53.6 °F 60% 29.76 in 10.0 mi South 27.6 mph 36.8 mph N/A   Clear
6:35 AM 68.0 °F - 53.6 °F 60% 29.76 in 10.0 mi South 27.6 mph 33.4 mph N/A   Clear
6:55 AM 68.0 °F - 53.6 °F 60% 29.76 in 10.0 mi South 26.5 mph 36.8 mph N/A   Clear
7:15 AM 68.0 °F - 53.6 °F 60% 29.76 in 10.0 mi South 27.6 mph 36.8 mph N/A   Clear
7:35 AM 69.8 °F - 53.6 °F 56% 29.76 in 10.0 mi South 29.9 mph 38.0 mph N/A   Clear
8:55 AM 73.4 °F - 53.6 °F 50% 29.77 in 10.0 mi South 31.1 mph 41.4 mph N/A   Clear
9:35 AM 77.0 °F - 53.6 °F 44% 29.77 in 10.0 mi SSW 32.2 mph 39.1 mph N/A   Clear
9:55 AM 78.8 °F - 53.6 °F 42% 29.78 in 10.0 mi SSW 28.8 mph 36.8 mph N/A   Clear
10:15 AM 78.8 °F - 53.6 °F 42% 29.78 in 10.0 mi SSW 20.7 mph 34.5 mph N/A   Clear
10:35 AM 80.6 °F 80.3 °F 53.6 °F 39% 29.78 in 10.0 mi SSW 27.6 mph 40.3 mph N/A   Clear
10:55 AM 80.6 °F - 51.8 °F 37% 29.78 in 10.0 mi SSW 27.6 mph 35.7 mph N/A   Clear
11:15 AM 82.4 °F - 51.8 °F 35% 29.78 in 10.0 mi SSW 28.8 mph 36.8 mph N/A   Clear
11:35 AM 86.0 °F - 51.8 °F 31% 29.77 in 10.0 mi SSW 26.5 mph 34.5 mph N/A   Clear
11:55 AM 86.0 °F - 50.0 °F 29% 29.77 in 10.0 mi South 25.3 mph 35.7 mph N/A   Clear
12:15 PM 87.8 °F - 50.0 °F 27% 29.77 in 10.0 mi South 27.6 mph 34.5 mph N/A   Clear
12:35 PM 89.6 °F - 50.0 °F 26% 29.76 in 10.0 mi SSW 24.2 mph 32.2 mph N/A   Clear
12:55 PM 91.4 °F - 46.4 °F 21% 29.76 in 10.0 mi SSW 25.3 mph 36.8 mph N/A   Clear
1:15 PM 91.4 °F - 48.2 °F 23% 29.75 in 10.0 mi South 26.5 mph 35.7 mph N/A   Clear
1:35 PM 91.4 °F - 44.6 °F 20% 29.75 in 10.0 mi South 27.6 mph 36.8 mph N/A   Clear
1:55 PM 95.0 °F - 44.6 °F 18% 29.75 in 10.0 mi South 21.9 mph 35.7 mph N/A   Clear
2:15 PM 95.0 °F - 44.6 °F 18% 29.74 in 10.0 mi South 29.9 mph 39.1 mph N/A   Clear
2:35 PM 95.0 °F - 44.6 °F 18% 29.74 in 10.0 mi South 29.9 mph 36.8 mph N/A   Clear
2:55 PM 95.0 °F - 44.6 °F 18% 29.73 in 10.0 mi South 24.2 mph 33.4 mph N/A   Clear
3:15 PM 95.0 °F - 44.6 °F 18% 29.73 in 10.0 mi South 26.5 mph 33.4 mph N/A   Clear
3:35 PM 96.8 °F - 42.8 °F 16% 29.72 in 10.0 mi South 25.3 mph 34.5 mph N/A   Clear
3:55 PM 96.8 °F - 42.8 °F 16% 29.72 in 10.0 mi South 24.2 mph 33.4 mph N/A   Clear
4:15 PM 96.8 °F - 41.0 °F 15% 29.71 in 10.0 mi South 25.3 mph 36.8 mph N/A   Clear
4:35 PM 96.8 °F - 42.8 °F 16% 29.71 in 10.0 mi South 25.3 mph 33.4 mph N/A   Clear
4:55 PM 96.8 °F - 42.8 °F 16% 29.70 in 10.0 mi South 26.5 mph 34.5 mph N/A   Clear
5:15 PM 95.0 °F - 44.6 °F 18% 29.69 in 10.0 mi South 27.6 mph 34.5 mph N/A   Clear
5:55 PM 95.0 °F - 42.8 °F 16% 29.70 in 10.0 mi South 32.2 mph 36.8 mph N/A   Clear
6:15 PM 95.0 °F - 44.6 °F 18% 29.69 in 10.0 mi South 28.8 mph 39.1 mph N/A   Clear
6:35 PM 93.2 °F - 44.6 °F 19% 29.69 in 10.0 mi South 21.9 mph 36.8 mph N/A   Clear
6:55 PM 93.2 °F - 44.6 °F 19% 29.69 in 10.0 mi South 26.5 mph 36.8 mph N/A   Clear
7:15 PM 93.2 °F - 44.6 °F 19% 29.69 in 10.0 mi South 27.6 mph 36.8 mph N/A   Clear
7:35 PM 91.4 °F - 44.6 °F 20% 29.70 in 10.0 mi South 26.5 mph 32.2 mph N/A   Clear
7:55 PM 91.4 °F - 46.4 °F 21% 29.71 in 10.0 mi South 20.7 mph 27.6 mph N/A   Clear
8:15 PM 89.6 °F - 46.4 °F 22% 29.71 in 10.0 mi South 21.9 mph 26.5 mph N/A   Clear
8:35 PM 87.8 °F - 51.8 °F 29% 29.72 in 10.0 mi South 21.9 mph 31.1 mph N/A   Clear
8:55 PM 87.8 °F - 51.8 °F 29% 29.72 in 10.0 mi South 23.0 mph 28.8 mph N/A   Clear
9:15 PM 86.0 °F - 51.8 °F 31% 29.72 in 10.0 mi SSE 23.0 mph 31.1 mph N/A   Clear
9:35 PM 86.0 °F - 50.0 °F 29% 29.72 in 10.0 mi SSE 24.2 mph 33.4 mph N/A   Clear
9:55 PM 86.0 °F - 48.2 °F 27% 29.73 in 10.0 mi South 27.6 mph 34.5 mph N/A   Clear
10:15 PM 86.0 °F - 48.2 °F 27% 29.73 in 10.0 mi South 31.1 mph 34.5 mph N/A   Clear
10:35 PM 86.0 °F - 46.4 °F 25% 29.74 in 10.0 mi South 28.8 mph 36.8 mph N/A   Clear
10:55 PM 82.4 °F - 46.4 °F 28% 29.75 in 10.0 mi SSE 24.2 mph 31.1 mph N/A   Clear
11:15 PM 82.4 °F - 50.0 °F 32% 29.75 in 10.0 mi South 31.1 mph 38.0 mph N/A   Clear
11:35 PM 82.4 °F - 50.0 °F 32% 29.75 in 10.0 mi South 26.5 mph 38.0 mph N/A   Clear
11:55 PM 80.6 °F - 51.8 °F 37% 29.76 in 10.0 mi SSE 25.3 mph 34.5 mph N/A   Clear